Date String (YYYY-MM-DD hh:mm:ss) UTC,Instrument flags,absolute air pressure of the measurement (hPa),sample flow rate (lpm),inlet stack bypass flow (lpm),air temperature of the measurement (°C),ambient temperature measured by the external sensor (°C),aerosol sample conditioner tube jacket temperature (°C),OPC LED temperature (°C),internal box temperature (°C),relative humidity of the measurement (%),span deviation,mass concentration of particles derived from Lorenz-Mie calculation of OPC scattering (μg/m³),mass concentration of particles derived from Lorenz-Mie calculation of OPC scattering (μg/m³),mass concentration of particles derived from Lorenz-Mie calculation of OPC scattering (μg/m³)
DateTimeUTC,F1_M11,P_M11,Q1_M11,Q2_M11,T1_M11,T2_M11,T3_M11,T4_M11,T5_M11,U1_M11,ZSPAN_M11,X0_M11,X2_M11,X1_M11
2024-02-26 04:00:00,SystemResetWarning,0822.3,5.00,000.00,021.7,020.8,000.0,030.0,023.3,10.0,0000.0,0007.48,0001.67,0001.11
2024-02-26 04:01:00,SystemResetWarning,0822.5,5.00,000.00,021.6,020.8,000.0,030.0,023.3,10.0,0000.0,0007.10,0001.75,0001.11
2024-02-26 04:02:00,SystemResetWarning,0822.4,5.00,000.00,021.6,020.8,000.0,029.9,023.3,10.0,0000.0,0007.18,0001.76,0001.12
2024-02-26 04:03:00,SystemResetWarning,0822.4,5.00,000.00,021.6,020.8,000.0,029.9,023.3,10.0,0000.0,0007.05,0001.75,0001.12
2024-02-26 04:04:00,SystemResetWarning,0822.7,5.00,000.00,021.6,020.8,000.0,029.9,023.2,10.1,0000.0,0006.48,0001.76,0001.12
2024-02-26 04:05:00,SystemResetWarning,0822.5,5.00,000.00,021.6,020.8,000.0,029.9,023.2,10.1,0000.0,0005.86,0001.75,0001.11
2024-02-26 04:06:00,SystemResetWarning,0822.6,5.00,000.00,021.6,020.8,000.0,029.9,023.2,10.0,0000.0,0004.98,0001.69,0001.12
2024-02-26 04:07:00,SystemResetWarning,0822.4,5.00,000.00,021.6,020.8,000.0,029.9,023.2,10.1,0000.0,0004.14,0001.68,0001.13
2024-02-26 04:08:00,SystemResetWarning,0822.5,5.00,000.00,021.6,020.7,000.0,029.9,023.2,10.1,0000.0,0004.06,0001.66,0001.14
2024-02-26 04:09:00,SystemResetWarning,0822.5,5.01,000.00,021.6,020.7,000.0,029.9,023.2,10.1,0000.0,0003.97,0001.62,0001.14
2024-02-26 04:10:00,SystemResetWarning,0822.6,5.01,000.00,021.6,020.7,000.0,029.9,023.2,10.2,0000.0,0004.27,0001.65,0001.14
2024-02-26 04:11:00,SystemResetWarning,0822.6,5.00,000.00,021.6,020.7,000.0,029.9,023.2,10.3,0000.0,0003.94,0001.66,0001.14
2024-02-26 04:12:00,SystemResetWarning,0822.5,4.99,000.00,021.6,020.7,000.0,029.9,023.2,10.2,0000.0,0003.37,0001.58,0001.15
2024-02-26 04:13:00,SystemResetWarning,0822.4,5.00,000.00,021.6,020.7,000.0,029.9,023.2,10.2,0000.0,0003.34,0001.56,0001.15
2024-02-26 04:14:00,SystemResetWarning,0822.4,5.01,000.00,021.6,020.7,000.0,029.9,023.2,10.1,0000.0,0003.34,0001.60,0001.16
2024-02-26 04:15:00,SystemResetWarning,0822.7,5.00,000.00,021.5,020.7,000.0,029.9,023.2,10.1,0000.0,0003.35,0001.61,0001.16
2024-02-26 04:16:00,SystemResetWarning,0822.7,5.00,000.00,021.5,020.7,000.0,029.9,023.2,10.2,0000.0,0003.46,0001.63,0001.18
2024-02-26 04:17:00,SystemResetWarning,0822.6,4.99,000.00,021.5,020.7,000.0,029.9,023.2,10.3,0000.0,0003.56,0001.65,0001.18
2024-02-26 04:18:00,SystemResetWarning,0822.6,4.99,000.00,021.5,020.7,000.0,029.8,023.2,10.3,0000.0,0003.77,0001.68,0001.18
2024-02-26 04:19:00,SystemResetWarning,0822.7,5.01,000.00,021.5,020.7,000.0,029.8,023.2,10.2,0000.0,0004.02,0001.74,0001.20
2024-02-26 04:20:00,SystemResetWarning,0822.4,5.01,000.00,021.5,020.7,000.0,029.8,023.2,10.3,0000.0,0004.16,0001.79,0001.20
2024-02-26 04:21:00,SystemResetWarning,0822.4,5.00,000.00,021.5,020.7,000.0,029.8,023.2,10.2,0000.0,0004.15,0001.88,0001.20
2024-02-26 04:22:00,SystemResetWarning,0822.7,4.98,000.00,021.5,020.7,000.0,029.8,023.2,10.2,0000.0,0003.65,0001.86,0001.20
2024-02-26 04:23:00,SystemResetWarning,0822.5,5.00,000.00,021.5,020.7,000.0,029.8,023.2,10.3,0000.0,0003.57,0001.84,0001.20
2024-02-26 04:24:00,SystemResetWarning,0822.5,5.01,000.00,021.5,020.7,000.0,029.8,023.2,10.3,0000.0,0004.68,0001.84,0001.21
2024-02-26 04:25:00,SystemResetWarning,0822.4,5.00,000.00,021.5,020.7,000.0,029.8,023.2,10.2,0000.0,0004.97,0001.84,0001.22
2024-02-26 04:26:00,SystemResetWarning,0822.7,5.00,000.00,021.5,020.7,000.0,029.8,023.1,10.1,0000.0,0004.93,0001.83,0001.23
2024-02-26 04:27:00,SystemResetWarning,0822.7,5.00,000.00,021.5,020.7,000.0,029.8,023.1,10.3,0000.0,0004.93,0001.83,0001.23
2024-02-26 04:28:00,SystemResetWarning,0822.5,5.00,000.00,021.5,020.7,000.0,029.8,023.1,10.1,0000.0,0005.45,0001.83,0001.22
2024-02-26 04:29:00,SystemResetWarning,0822.7,5.01,000.00,021.5,020.7,000.0,029.8,023.1,10.2,0000.0,0005.32,0001.84,0001.22
2024-02-26 04:30:00,SystemResetWarning,0822.5,4.99,000.00,021.5,020.7,000.0,029.8,023.1,10.2,0000.0,0005.42,0001.82,0001.23
2024-02-26 04:31:00,SystemResetWarning,0822.4,4.99,000.00,021.5,020.7,000.0,029.8,023.1,10.3,0000.0,0005.90,0001.83,0001.23
2024-02-26 04:32:00,SystemResetWarning,0822.4,5.00,000.00,021.5,020.7,000.0,029.8,023.1,10.3,0000.0,0005.84,0001.79,0001.23
2024-02-26 04:33:00,SystemResetWarning,0822.4,5.01,000.00,021.5,020.7,000.0,029.8,023.1,10.3,0000.0,0005.95,0001.81,0001.24
2024-02-26 04:34:00,SystemResetWarning,0822.8,5.01,000.00,021.5,020.7,000.0,029.8,023.1,10.3,0000.0,0006.34,0001.84,0001.23
2024-02-26 04:35:00,SystemResetWarning,0822.5,5.00,000.00,021.5,020.7,000.0,029.8,023.1,10.3,0000.0,0005.51,0001.85,0001.23
2024-02-26 04:36:00,SystemResetWarning,0822.4,4.98,000.00,021.5,020.7,000.0,029.8,023.1,10.3,0000.0,0006.30,0001.87,0001.24
2024-02-26 04:37:00,SystemResetWarning,0822.5,5.00,000.00,021.5,020.7,000.0,029.8,023.1,10.3,0000.0,0006.38,0001.90,0001.25
2024-02-26 04:38:00,SystemResetWarning,0822.4,5.01,000.00,021.4,020.7,000.0,029.8,023.1,10.3,0000.0,0006.34,0001.91,0001.25
2024-02-26 04:39:00,SystemResetWarning,0822.4,5.01,000.00,021.4,020.7,000.0,029.8,023.1,10.3,0000.0,0005.78,0001.91,0001.25
2024-02-26 04:40:00,SystemResetWarning,0822.8,4.99,000.00,021.4,020.6,000.0,029.7,023.1,10.4,0000.0,0005.92,0001.96,0001.26
2024-02-26 04:41:00,SystemResetWarning,0822.6,4.99,000.00,021.4,020.6,000.0,029.7,023.1,10.5,0000.0,0005.66,0001.93,0001.26
2024-02-26 04:42:00,SystemResetWarning,0822.4,5.00,000.00,021.4,020.6,000.0,029.7,023.1,10.4,0000.0,0005.13,0001.91,0001.26
2024-02-26 04:43:00,SystemResetWarning,0822.6,5.00,000.00,021.4,020.6,000.0,029.7,023.1,10.4,0000.0,0005.17,0001.90,0001.26
2024-02-26 04:44:00,SystemResetWarning,0822.4,5.01,000.00,021.4,020.6,000.0,029.7,023.1,10.4,0000.0,0005.03,0001.85,0001.26
2024-02-26 04:45:00,SystemResetWarning,0822.6,5.01,000.00,021.4,020.6,000.0,029.7,023.1,10.5,0000.0,0004.75,0001.88,0001.27
2024-02-26 04:46:00,SystemResetWarning,0822.4,5.00,000.00,021.4,020.6,000.0,029.7,023.1,10.5,0000.0,0004.93,0001.97,0001.28
2024-02-26 04:47:00,SystemResetWarning,0822.7,5.00,000.00,021.4,020.6,000.0,029.7,023.1,10.4,0000.0,0004.54,0001.97,0001.28
2024-02-26 04:48:00,SystemResetWarning,0822.4,5.00,000.00,021.4,020.6,000.0,029.7,023.1,10.5,0000.0,0004.75,0002.00,0001.28
2024-02-26 04:49:00,SystemResetWarning,0822.5,4.99,000.00,021.4,020.6,000.0,029.7,023.1,10.5,0000.0,0005.27,0002.00,0001.28
2024-02-26 04:50:00,SystemResetWarning,0822.5,5.01,000.00,021.4,020.6,000.0,029.7,023.0,10.5,0000.0,0005.43,0002.03,0001.28
2024-02-26 04:51:00,SystemResetWarning,0822.5,5.01,000.00,021.4,020.6,000.0,029.7,023.0,10.6,0000.0,0005.36,0002.01,0001.29
2024-02-26 04:52:00,SystemResetWarning,0822.3,5.01,000.00,021.4,020.6,000.0,029.7,023.1,10.6,0000.0,0005.46,0002.03,0001.30
2024-02-26 04:53:00,SystemResetWarning,0822.5,5.00,000.00,021.4,020.6,000.0,029.7,023.0,10.6,0000.0,0005.43,0002.05,0001.30
2024-02-26 04:54:00,SystemResetWarning,0822.5,5.00,000.00,021.4,020.6,000.0,029.7,023.0,10.5,0000.0,0005.31,0002.03,0001.30
2024-02-26 04:55:00,SystemResetWarning,0822.8,4.99,000.00,021.4,020.6,000.0,029.7,023.0,10.6,0000.0,0005.35,0002.04,0001.30
2024-02-26 04:56:00,SystemResetWarning,0822.4,5.00,000.00,021.4,020.6,000.0,029.7,023.0,10.5,0000.0,0005.42,0002.04,0001.29
2024-02-26 04:57:00,SystemResetWarning,0822.4,5.01,000.00,021.4,020.6,000.0,029.7,023.0,10.4,0000.0,0005.11,0001.93,0001.28
2024-02-26 04:58:00,SystemResetWarning,0822.4,5.01,000.00,021.4,020.6,000.0,029.7,023.0,10.5,0000.0,0004.34,0001.88,0001.28
2024-02-26 04:59:00,SystemResetWarning,0822.7,5.00,000.00,021.4,020.5,000.0,029.7,023.0,10.6,0000.0,0003.95,0001.88,0001.29
